This is the latest recevied weather packets stored in our database for station/object SV1RVP-13. If no packets are shown the sender has not sent any weather packets the latest 10 day(s).
| Time | Temp. | Humidity | Pressure | Rain* | Wind** | Luminosity | Snow |
|---|---|---|---|---|---|---|---|
| 1788554938 | 28.33° C | 46% | 1015.3 hPa | 0 mm | - | - | - |
| 1788554377 | 28.33° C | 46% | 1015.3 hPa | 0 mm | - | - | - |
| 1788553728 | 27.78° C | 47% | 1015.5 hPa | 0 mm | - | - | - |
| 1788553114 | 28.33° C | 46% | 1015.5 hPa | 0 mm | - | - | - |
| 1788552509 | 28.33° C | 46% | 1015.4 hPa | 0 mm | - | - | - |
| 1788551926 | 28.33° C | 45% | 1015.5 hPa | 0 mm | - | - | - |
| 1788551325 | 28.89° C | 44% | 1015.3 hPa | 0 mm | - | - | - |
| 1788550722 | 28.89° C | 43% | 1015.4 hPa | 0 mm | - | - | - |
| 1788550134 | 28.89° C | 43% | 1015.3 hPa | 0 mm | - | - | - |
| 1788549543 | 28.89° C | 43% | 1015.4 hPa | 0 mm | - | - | - |
| 1788548916 | 28.89° C | 43% | 1015.4 hPa | 0 mm | - | - | - |
| 1788548312 | 28.89° C | 44% | 1015.3 hPa | 0 mm | - | - | - |
| 1788547735 | 28.89° C | 45% | 1015.2 hPa | 0 mm | - | - | - |
| 1788547123 | 28.89° C | 44% | 1015.1 hPa | 0 mm | - | - | - |
| 1788546516 | 28.89° C | 44% | 1015.1 hPa | 0 mm | - | - | - |
| 1788545909 | 28.89° C | 44% | 1015 hPa | 0 mm | - | - | - |
| 1788545316 | 28.89° C | 44% | 1014.8 hPa | 0 mm | - | - | - |
| 1788544711 | 29.44° C | 45% | 1014.6 hPa | 0 mm | - | - | - |
| 1788544134 | 29.44° C | 45% | 1014.5 hPa | 0 mm | - | - | - |
| 1788543524 | 29.44° C | 42% | 1014.3 hPa | 0 mm | - | - | - |
| 1788542941 | 30° C | 41% | 1014.1 hPa | 0 mm | - | - | - |
| 1788542313 | 30° C | 40% | 1014 hPa | 0 mm | - | - | - |
| 1788541724 | 30° C | 41% | 1013.8 hPa | 0 mm | - | - | - |
| 1788541119 | 30° C | 41% | 1013.6 hPa | 0 mm | - | - | - |
| 1788540512 | 30.56° C | 40% | 1013.5 hPa | 0 mm | - | - | - |
* Rain since midnight (hover to see other rain measurements)
** Current wind speed in m/s (hover to see current wind gust speed)